Location: Palo Alto
(37.4420°N, 122.1420°W)
Time: 08:35:59
(UTC-08:00)

Daily predictions for brighter satellites

Satellite Brightness Start Highest point End
(mag) Time Altitude Azimuth Time Altitude Azimuth Time Altitude Azimuth
IDEFIX/ARIANE 42P 4.1 17:13:33 10° S 17:18:26 42° W 17:23:20 10° NNW
Cosmos 1025 Rocket 4.4 17:17:01 10° SE 17:20:03 19° E 17:23:05 10° NE
Cosmos 158 Rocket 3.9 17:16:26 10° NNW 17:21:26 64° ENE 17:26:18 10° SSE
NOSS 3-2 (C) 4.4 17:15:36 10° NNW 17:22:41 41° NE 17:30:19 10° ESE
Cosmos 2084 3.9 17:18:54 10° S 17:22:53 41° ESE 17:26:41 10° NE
ATLAS 3B R/B 2.6 17:17:15 10° NNW 17:23:56 81° ENE 17:30:27 10° SE
Cosmos 1980 Rocket 3.1 17:21:40 10° SSE 17:26:26 29° ESE 17:31:14 10° NE
ATLAS 2AS CENTAUR R/B 4.0 17:19:30 10° WSW 17:26:52 44° NW 17:34:34 10° NNE
Meteor 2-9 Rocket 4.2 17:22:00 10° N 17:27:24 59° ENE 17:32:38 10° SSE
Cosmos 1666 2.9 17:24:31 10° N 17:28:15 75° W 17:31:58 10° S
Cosmos 1656 3.7 17:25:29 10° SSW 17:31:04 88° ESE 17:36:37 10° NNE
Cosmos 1536 Rocket 3.5 17:29:58 10° S 17:34:19 85° E 17:38:40 10° N
USA 215 3.4 17:31:13 10° ESE 17:37:35 58° NE 17:43:58 10° NW
CZ-2C R/B 4.0 17:33:04 10° NNE 17:37:43 55° E 17:42:22 10° S
DELTA 2 R/B (1) 3.6 17:32:25 10° WNW 17:37:59 75° N 17:43:35 10° E
CZ-2C R/B 4.3 17:33:58 10° SSW 17:38:43 37° W 17:43:28 10° NNW
Cosmos 1484 Rocket 2.9 17:34:54 10° SSE 17:38:54 90° SSW 17:42:57 10° NNW
Cosmos 2297 Rocket 2.2 17:33:24 10° NNW 17:39:06 84° ENE 17:44:45 10° SSE
USA 161 4.5 17:39:06 10° NNW 17:41:09 17° WNW 17:43:13 10° WSW
Meteor 1-23 Rocket 4.3 17:37:20 10° S 17:43:00 64° E 17:48:38 10° NNE
NOSS 3-4 (A) 3.5 17:42:01 10° SSW 17:48:13 82° ESE 17:54:37 10° NE
NOSS 3-4 (C) 3.5 17:42:06 10° SSW 17:48:18 81° ESE 17:54:42 10° NE
SKYMED 2 3.9 17:48:09 10° NNE 17:52:19 44° E 17:56:27 10° S
BREEZE-M DEB (TANK) 3.0 17:49:58 10° NW 17:52:59 84° SW 18:03:00 10° SE
SMAP 3.4 17:49:18 10° S 17:53:56 71° WSW 17:58:35 10° NNW
NOSS 2-2 (D) 4.2 17:52:19 10° S 17:55:43 30° ESE 17:57:48 19° ENE
Lacrosse 5 rocket 3.1 17:57:28 10° SSE 18:00:09 17° ESE 18:01:05 16° ESE
CZ-4 R/B 4.4 17:56:14 10° SSE 18:00:18 62° ENE 18:04:24 10° N
CENTAUR R/B 3.7 17:54:57 10° NNW 18:02:02 34° NE 18:09:32 10° ESE
METEOR-M 4.1 17:57:25 10° SSE 18:02:42 67° ENE 18:08:00 10° N
Atlas Centaur 2 4.2 17:59:52 10° WSW 18:04:15 21° SSW 18:07:57 10° SSE
Meteor 1-28 Rocket 4.3 18:02:08 10° N 18:05:45 45° WNW 18:09:21 10° SSW
FENGYUN 3A 3.9 18:01:33 10° SE 18:06:35 43° ENE 18:11:38 10° N
EP 2 4.1 18:05:24 10° SSW 18:08:07 82° ESE 18:09:03 35° NE
ALOS 2.5 18:05:39 10° SE 18:10:05 45° ENE 18:14:32 10° N
SL-16 R/B 3.3 18:06:33 10° SSE 18:10:45 22° E 18:11:33 21° E
SL-8 R/B 4.1 18:06:09 10° SSW 18:10:47 50° SE 18:13:14 26° ENE
NOSS 2-2 (E) 3.5 18:07:07 10° SSW 18:10:55 55° ESE 18:13:04 25° NE
Cosmos 2263 Rocket 4.1 18:09:06 10° NNE 18:09:39 11° NNE 18:09:39 11° NNE
Ariane Rocket 4.2 18:08:57 10° S 18:13:47 45° W 18:18:38 10° NNW
Cosmos 2322 Rocket 3.3 18:10:03 10° SSE 18:14:18 23° E 18:14:52 22° E
Nadezhda 2 Rocket 4.5 18:08:16 10° N 18:14:37 71° E 18:21:00 10° SSE
Cosmos 1184 Rocket 3.2 18:11:51 10° SSE 18:14:54 38° E 18:15:10 37° E
USA 116 4.3 18:12:07 10° N 18:15:04 41° WNW 18:18:01 10° SSW
IRS-1A Rocket 4.4 18:09:42 10° S 18:15:17 79° WSW 18:20:50 10° NNW
Cosmos 1515 3.9 18:12:15 10° SSW 18:16:00 69° W 18:19:48 10° N
RESURS DK-1 2.4 18:13:03 10° S 18:17:06 59° ESE 18:19:06 28° NE
Cosmos 1726 Rocket 4.4 18:13:59 10° NNE 18:18:41 27° E 18:21:36 10° SE
NOSS 2-2 (C) 3.4 18:14:22 10° SSW 18:18:08 56° ESE 18:19:45 32° NE
SPOT 3 Rocket 3.6 18:13:29 10° SSE 18:18:31 56° ENE 18:23:34 10° N
Cosmos 494 Rocket 4.0 18:14:29 10° N 18:19:41 57° ENE 18:24:49 10° SSE
Cosmos 1892 Rocket 4.1 18:16:21 10° SSE 18:20:26 36° E 18:21:25 32° ENE
MTI 4.1 18:17:47 13° N 18:20:37 67° WNW 18:23:49 10° SSW
YAOGAN 1 2.9 18:16:23 10° S 18:20:41 69° WSW 18:25:01 10° NNW
Cosmos 2360 4.1 18:16:24 10° SSW 18:22:06 81° ESE 18:26:48 16° NNE
EO 1 Del DPAF 3.1 18:21:11 16° NNE 18:24:08 86° ESE 18:27:56 10° SSW
Gblst 52 Del rocket 4.3 18:19:51 10° NW 18:25:30 65° NE 18:29:44 21° ESE
ERS-2 1.9 18:22:33 10° SSE 18:26:12 74° ENE 18:29:52 10° N
DELTA 2 R/B (2) 4.0 18:23:47 10° WSW 18:26:27 88° S 18:26:56 61° E
Cosmos 1697 Rocket 3.6 18:22:44 10° SW 18:28:09 46° WNW 18:33:34 10° N
Cosmos 2344 4.2 18:22:54 10° S 18:29:40 34° ESE 18:32:09 28° ENE
Cosmos 2251 Rocket 3.7 18:24:40 10° N 18:29:44 46° ENE 18:34:44 10° SE
Thor Agena Rocket 4.3 18:30:07 32° E 18:30:17 32° E 18:34:57 10° SSE
PSLV R/B 3.5 18:28:02 10° WNW 18:30:54 47° N 18:30:54 47° N
SJ 16-02 4.0 18:34:33 10° WSW 18:37:26 17° WNW 18:40:19 10° NNW
CZ-4 R/B 3.6 18:34:39 10° SSW 18:37:55 26° W 18:41:15 10° NW
COSMO-SKYMED 1 3.4 18:36:10 10° N 18:40:21 49° WNW 18:44:31 10° SSW
S3M 3.8 18:45:25 10° S 18:51:29 72° E 18:56:00 19° NNE
Shenzhou-11 Module 4.2 18:57:40 10° SW 18:59:01 24° SW 18:59:01 24° SW
Cosmos 1386 Rocket 4.5 18:58:46 10° N 19:05:04 58° E 19:11:21 10° SSE
Cosmos 2360 Rocket 4.4 19:04:04 10° SSE 19:04:20 11° SSE 19:04:20 11° SSE
FengYun 1-2 T 4.1 19:03:51 10° SSE 19:09:28 84° ENE 19:15:09 10° NNW
Cosmos 1980 Rocket 3.5 19:05:03 10° SW 19:10:15 36° WNW 19:14:03 17° N
DELTA 2 R/B (1) 3.9 19:18:58 10° WNW 19:24:25 57° SSW 19:24:31 57° SSW
Meteor 1-22 Rocket 4.4 19:24:10 10° NNW 19:30:01 72° W 19:35:36 10° S
Lacrosse 5 rocket 3.4 19:34:50 10° WSW 19:36:48 26° WSW 19:36:48 26° WSW
Cosmos 1745 Rocket 4.4 19:33:41 10° NNW 19:39:47 59° W 19:45:55 10° S
CENTAUR R/B 3.4 19:45:18 10° NW 19:53:16 63° WSW 19:57:07 35° S
SL-16 R/B 3.2 19:49:01 10° SW 19:53:30 43° W 19:53:30 43° W
Cosmos 2322 Rocket 3.4 19:52:38 10° SW 19:56:45 39° W 19:56:45 39° W
